Flag for Jordan Weather past 2 weeks in Zarqa, Jordan

Now
73 °F

Haze.


Feels Like: 77 °F
Forecast: 65 / 91 °F
Wind: No wind

Location: Amman Airport

Current Time: Jul 6, 2015 at 6:07:22 AM

Latest Report: Jul 6, 2015 at 5:00 AM


Visibility: 3 mi

Pressure: 29.95 "Hg (27.90 "Hg at 615m altitude)

Humidity: 33%

Dew point: 43 °F

Location of ZarqaLocation

Historic Weather in Zarqa — Graph

°F

Zarqa temperature yesterday

Maximum temperature yesterday: 90 °F (at 2:00 PM)
Minimum temperature yesterday: 68 °F (at 4:00 AM)
Average temperature yesterday: 80 °F

Past Weeks' High & Low Weather Summary

 TemperatureHumidityPressure
High95 °F (Jul 2, 2:00 PM)88% (Jun 22, 6:00 AM)30.07 "Hg (Jun 22, 6:00 AM)
Low59 °F (Jun 24, 6:00 AM)14% (Jul 1, 3:00 PM)29.80 "Hg (Jun 28, 1:00 AM)
Average74 °F46%29.93 "Hg
* Reported Jun 21 5:00 AM — Jul 6 5:00 AM, Zarqa, Weather by CustomWeather, © 2015

Note: Actual official high and low records may vary slightly from our data, if they occured in-between our weather recording intervals... More about our weather records

Advertising

Zarqa weather history for previous 24 hours

 ConditionsComfort  
Time TempWeatherWind HumidityBarometerVisibility
5:00 AM
Mon, Jul 6
73 °FHaze.No wind33%29.95 "Hg3 mi
4:00 AM75 °FHaze.5 mph27%29.95 "Hg3 mi
3:00 AM73 °FHaze.No wind29%29.95 "Hg3 mi
2:00 AM72 °FHaze.No wind36%29.98 "Hg3 mi
1:00 AM75 °FHaze.No wind34%29.98 "Hg3 mi
12:00 AM77 °FHaze.No wind39%29.98 "Hg3 mi
11:00 PM
Sun, Jul 5
77 °FHaze.No wind36%29.98 "Hg3 mi
10:00 PM79 °FHaze.No wind32%29.98 "Hg3 mi
9:00 PM81 °FHaze.6 mph28%29.98 "Hg3 mi
8:00 PM84 °FHaze.9 mph31%29.98 "Hg3 mi
7:00 PM86 °FHaze.9 mph25%29.98 "Hg3 mi
6:00 PM88 °FHaze.14 mph22%29.98 "Hg3 mi
5:00 PM90 °FHaze.16 mph21%29.98 "Hg3 mi
4:00 PM90 °FClear.14 mph21%29.98 "Hg4 mi
3:00 PM88 °FClear.9 mph21%29.98 "Hg4 mi
2:00 PM90 °FHaze.9 mph20%29.98 "Hg3 mi
1:00 PM88 °FHaze.14 mph21%29.98 "Hg3 mi
12:00 PM84 °FClear.5 mph23%29.98 "Hg4 mi
11:00 AM82 °FClear.13 mph26%29.98 "Hg4 mi
10:00 AM81 °FClear.12 mph28%29.98 "Hg4 mi
9:00 AM79 °FHaze.9 mph32%29.98 "Hg3 mi
8:00 AM77 °FHaze.7 mph36%29.98 "Hg3 mi
7:00 AM72 °FHaze.6 mph41%29.98 "Hg3 mi
6:00 AM70 °FHaze.7 mph35%29.95 "Hg2 mi
Weather by CustomWeather, © 2015

See weather overviewHow to use our weather pages